ONEWEB-0088 (45457 NORAD) Tracking and Keplerian Element Data

This shows tracking and keplerian element data for the satellite.

Feedback or suggestion? Click here.




ElementValue
Catalog45457
NameONEWEB-0088
Epoch Orbit161
Epoch Day93.91667824
Epoch Year2020
RAAN134.6076
Inclination87.4005
Eccentricity0.0021502
Argument of Perigee257.4486
Mean Anonmoly171.2376
Mean Motion15.34146568
Decay Rate0.00039547
L11 45457U 20020AK 20093.91667824 .00039547 00000-0 11836-2 0 9995
L22 45457 87.4005 134.6076 0021502 257.4486 171.2376 15.34146568 1612

Live tracking and technical data element details for ONEWEB-0088 (NORAD 45457). ONEWEB-0088 can be tracked NOW for your location showing map with azimuth and elevation plus other details from your city location.

Track the satellite on the map from your city or location and see movement details for azimuth, elevation, latitude, longitude, range, height, and movement on the map or in text.







IsCatalogInMostPopularTable: catalog: 45457, numindb: 9
Update: records affected: 1



GetName: 45457 ONEWEB-0088

Hit Count: updated at: Tue, 07 Apr 2020 17:36:03 GMT